Other Public Products
Issued by NWS Charleston, SC

Current Version | Previous Version | Graphics & Text | Print | Product List | Glossary On
Versions: 1 2 3 4 5 6 7 8 9 10 11 12 13 14 15 16 17 18 19 20 21 22 23 24 25 26 27 28 29 30 31 32 33 34 35 36 37 38 39 40 41 42 43 44 45 46 47 48 49 50
958
FPUS82 KCHS 250012
OPUCHS

TEST...KCHS/KSAV Gateway Observations...TEST
National Weather Service Charleston SC
700 PM EST FRI NOV 24 2017

NOTE: "fair" indicates few or no clouds below 12,000 feet with no
significant weather and/or obstructions to visibility.

SCZ050-WAZ558-NCZ071-TXZ119-213-PAZ071-DCZ001-FLZ074-172-MI076-
NYZ176-178-MAZ016-IL014-TNZ027-NJZ106-GAZ044-MD014-250100-

...Gateway Observations for Charleston International...

CITY           SKY/WX    TMP DP  RH WIND       PRES   REMARKS
Chas Airport   PTCLDY    50  41  71 N7        29.95R
6HR MIN TEMP:  50; 6HR MAX TEMP:  63;

Seattle        CLOUDY    50  42  74 S7        30.07R
6HR MIN TEMP:  50; 6HR MAX TEMP:  52; 6HR PCP: TRACE;

Charlotte      CLEAR     50  34  54 CALM      29.97R
6HR MIN TEMP:  42; 6HR MAX TEMP:  62;

Dallas DFW     CLOUDY    70  38  31 S12       29.77R
6HR MIN TEMP:  70; 6HR MAX TEMP:  79;

Dallas Love    CLOUDY    71  37  28 S13       29.79S
6HR MIN TEMP:  69; 6HR MAX TEMP:  78;

Philladelphia  CLEAR     46  30  53 S5        29.98F
6HR MIN TEMP:  45; 6HR MAX TEMP:  51;

Wash National  CLEAR     47  32  56 S6        29.98R
6HR MIN TEMP:  47; 6HR MAX TEMP:  53;

Baltimore      CLEAR     42  33  70 S3        29.97R
6HR MIN TEMP:  41; 6HR MAX TEMP:  54;

Miami          PTCLDY    77  64  64 W9        29.90S
6HR MIN TEMP:  76; 6HR MAX TEMP:  82;

Detroit        MOCLDY    50  33  52 S18       29.63F
6HR MIN TEMP:  49; 6HR MAX TEMP:  54;

Newark         CLEAR     44  27  51 S6        29.97S
6HR MIN TEMP:  44; 6HR MAX TEMP:  52;

Laguardia      CLEAR     48  27  44 S6        29.97S
6HR MIN TEMP:  47; 6HR MAX TEMP:  51;

J F K          CLEAR     45  35  68 SW9       29.99S
6HR MIN TEMP:  43; 6HR MAX TEMP:  48;

Boston Logan   CLEAR     43  32  65 S14       29.96R
6HR MIN TEMP:  42; 6HR MAX TEMP:  50;

Ft. Lauderdale PTCLDY    75  67  76 W5        29.89S
6HR MIN TEMP:  75; 6HR MAX TEMP:  80;

Chicago O`Hare PTCLDY    56  39  53 S16G24    29.48R
6HR MIN TEMP:  56; 6HR MAX TEMP:  63;

Chicago Midway PTCLDY    55  40  56 S20G25    29.50R
6HR MIN TEMP:  55; 6HR MAX TEMP:  62;

Houston Bush   PTCLDY    62  47  57 SE7       29.91S
6HR MIN TEMP:  62; 6HR MAX TEMP:  73;

Houston Hobby  PTCLDY    62  46  55 S8        29.92R
6HR MIN TEMP:  62; 6HR MAX TEMP:  72;

Nashville      PTCLDY    54  29  38 S5        29.89R
6HR MIN TEMP:  54; 6HR MAX TEMP:  64;

Atlanta        PTCLDY    55  44  66 CALM      29.96R
6HR MIN TEMP:  55; 6HR MAX TEMP:  63;


$$

GAZ044-118-TXZ119-213-NCZ071-DCZ001-MDZ014-506-PAZ021-071-NJZ106-
NYZ176-178-MAZ106-OHZ011-021-055-MIZ076-KYZ091-ILZ014-INZ047-
MNZ060-ONZ431-250100-

...Gateway Observations for Savannah International...

CITY           SKY/WX    TMP DP  RH WIND       PRES   REMARKS
Savannah Arpt  PTCLDY    50  44  80 CALM      29.96R
6HR MIN TEMP:  50; 6HR MAX TEMP:  66;

Atlanta        PTCLDY    55  44  66 CALM      29.96R
6HR MIN TEMP:  55; 6HR MAX TEMP:  63;

Charlotte      CLEAR     50  34  54 CALM      29.97R
6HR MIN TEMP:  42; 6HR MAX TEMP:  62;

Dallas DFW     CLOUDY    70  38  31 S12       29.77R
6HR MIN TEMP:  70; 6HR MAX TEMP:  79;

Houston Bush   PTCLDY    62  47  57 SE7       29.91S
6HR MIN TEMP:  62; 6HR MAX TEMP:  73;

Wash National  CLEAR     47  32  56 S6        29.98R
6HR MIN TEMP:  47; 6HR MAX TEMP:  53;

Wash Dulles    CLEAR     43  29  57 SE6       29.95F
6HR MIN TEMP:  43; 6HR MAX TEMP:  55;

Baltimore      CLEAR     42  33  70 S3        29.97R
6HR MIN TEMP:  41; 6HR MAX TEMP:  54;

Philadelphia   CLEAR     46  30  53 S5        29.98F
6HR MIN TEMP:  45; 6HR MAX TEMP:  51;

Newark         CLEAR     44  27  51 S6        29.97S
6HR MIN TEMP:  44; 6HR MAX TEMP:  52;

Laguardia      CLEAR     48  27  44 S6        29.97S
6HR MIN TEMP:  47; 6HR MAX TEMP:  51;

J F K          CLEAR     45  35  68 SW9       29.99S
6HR MIN TEMP:  43; 6HR MAX TEMP:  48;

Boston         CLEAR     43  32  65 S14       29.96R
6HR MIN TEMP:  42; 6HR MAX TEMP:  50;

Pittsburg      PTCLDY    47  20  34 S3        29.82S
6HR MIN TEMP:  46; 6HR MAX TEMP:  53;

Akron          PTCLDY    45  23  42 S12       29.77F
6HR MIN TEMP:  45; 6HR MAX TEMP:  53;

Cleveland      MOCLDY    50  26  39 S13G21    29.76R
6HR MIN TEMP:  50; 6HR MAX TEMP:  54;

Cincinnati     PTCLDY    47  30  51 S10       29.80S
6HR MIN TEMP:  46; 6HR MAX TEMP:  56;

Columbus       CLEAR     45  27  49 S7        29.80S
Detroit        MOCLDY    50  33  52 S18       29.63F
6HR MIN TEMP:  49; 6HR MAX TEMP:  54;

Chicago O`Hare PTCLDY    56  39  53 S16G24    29.48R
6HR MIN TEMP:  56; 6HR MAX TEMP:  63;

Minneapolis    CLEAR     46  40  79 W8        29.57R
6HR MIN TEMP:  45; 6HR MAX TEMP:  60; 6HR PCP: TRACE;

Indianapolis   PTCLDY    52  31  44 S15       29.70F
6HR MIN TEMP:  51; 6HR MAX TEMP:  59;

Toronto Canada MOCLDY    48  28  46 S10       29.64R

$$




USA.gov is the U.S. government's official web portal to all federal, state and local government web resources and services.